Year,Month,Day,Hour,Minute,Value (Times are PST for temperature in C)
2012,07,26,00,00,13.10
2012,07,26,00,01,13.10
2012,07,26,00,02,13.10
2012,07,26,00,03,13.00
2012,07,26,00,04,13.00
2012,07,26,00,05,13.00
2012,07,26,00,06,13.00
2012,07,26,00,07,13.00
2012,07,26,00,08,13.00
2012,07,26,00,09,13.00
2012,07,26,00,10,13.00
2012,07,26,00,11,13.00
2012,07,26,00,12,13.00
2012,07,26,00,13,13.00
2012,07,26,00,14,13.00
2012,07,26,00,15,13.00
2012,07,26,00,16,13.00
2012,07,26,00,17,13.00
2012,07,26,00,18,13.00
2012,07,26,00,19,13.00
2012,07,26,00,20,13.00
2012,07,26,00,21,13.00
2012,07,26,00,22,13.00
2012,07,26,00,23,13.00
2012,07,26,00,24,13.00
2012,07,26,00,25,13.00
2012,07,26,00,26,13.00
2012,07,26,00,27,13.00
2012,07,26,00,28,13.00
2012,07,26,00,29,13.00
2012,07,26,00,30,13.00
2012,07,26,00,31,13.00
2012,07,26,00,32,13.00
2012,07,26,00,33,13.00
2012,07,26,00,34,13.00
2012,07,26,00,35,13.00
2012,07,26,00,36,13.00
2012,07,26,00,37,13.00
2012,07,26,00,38,13.00
2012,07,26,00,39,13.00
2012,07,26,00,40,13.00
2012,07,26,00,41,12.90
2012,07,26,00,42,12.90
2012,07,26,00,43,12.90
2012,07,26,00,44,12.90
2012,07,26,00,45,12.90
2012,07,26,00,46,12.90
2012,07,26,00,47,12.90
2012,07,26,00,48,12.90
2012,07,26,00,49,12.90
2012,07,26,00,50,12.90
2012,07,26,00,51,12.90
2012,07,26,00,52,12.90
2012,07,26,00,53,12.90
2012,07,26,00,54,12.90
2012,07,26,00,55,12.90
2012,07,26,00,56,12.90
2012,07,26,00,57,12.90
2012,07,26,00,58,12.90
2012,07,26,00,59,13.00
2012,07,26,01,00,13.00
2012,07,26,01,01,13.00
2012,07,26,01,02,12.90
2012,07,26,01,03,12.90
2012,07,26,01,04,12.90
2012,07,26,01,05,12.90
2012,07,26,01,06,12.90
2012,07,26,01,07,12.90
2012,07,26,01,08,12.80
2012,07,26,01,09,12.80
2012,07,26,01,10,12.80
2012,07,26,01,11,12.80
2012,07,26,01,12,12.80
2012,07,26,01,13,12.80
2012,07,26,01,14,12.80
2012,07,26,01,15,12.80
2012,07,26,01,16,12.80
2012,07,26,01,17,12.80
2012,07,26,01,18,12.80
2012,07,26,01,19,12.70
2012,07,26,01,20,12.70
2012,07,26,01,21,12.70
2012,07,26,01,22,12.70
2012,07,26,01,23,12.70
2012,07,26,01,24,12.70
2012,07,26,01,25,12.60
2012,07,26,01,26,12.60
2012,07,26,01,27,12.60
2012,07,26,01,28,12.60
2012,07,26,01,29,12.60
2012,07,26,01,30,12.60
2012,07,26,01,31,12.60
2012,07,26,01,32,12.60
2012,07,26,01,33,12.60
2012,07,26,01,34,12.50
2012,07,26,01,35,12.50
2012,07,26,01,36,12.50
2012,07,26,01,37,12.50
2012,07,26,01,38,12.50
2012,07,26,01,39,12.50
2012,07,26,01,40,12.50
2012,07,26,01,41,12.40
2012,07,26,01,42,12.40
2012,07,26,01,43,12.40
2012,07,26,01,44,12.40
2012,07,26,01,45,12.40
2012,07,26,01,46,12.40
2012,07,26,01,47,12.30
2012,07,26,01,48,12.30
2012,07,26,01,49,12.30
2012,07,26,01,50,12.30
2012,07,26,01,51,12.30
2012,07,26,01,52,12.30
2012,07,26,01,53,12.30
2012,07,26,01,54,12.30
2012,07,26,01,55,12.30
2012,07,26,01,56,12.30
2012,07,26,01,57,12.30
2012,07,26,01,58,12.20
2012,07,26,01,59,12.20
2012,07,26,02,00,12.20
2012,07,26,02,01,12.20
2012,07,26,02,02,12.20
2012,07,26,02,03,12.10
2012,07,26,02,04,12.10
2012,07,26,02,05,12.10
2012,07,26,02,06,12.10
2012,07,26,02,07,12.10
2012,07,26,02,08,12.00
2012,07,26,02,09,12.00
2012,07,26,02,10,12.00
2012,07,26,02,11,12.00
2012,07,26,02,12,12.00
2012,07,26,02,13,12.00
2012,07,26,02,14,11.90
2012,07,26,02,15,11.90
2012,07,26,02,16,11.90
2012,07,26,02,17,11.90
2012,07,26,02,18,11.90
2012,07,26,02,19,11.80
2012,07,26,02,20,11.80
2012,07,26,02,21,11.80
2012,07,26,02,22,11.80
2012,07,26,02,23,11.80
2012,07,26,02,24,11.80
2012,07,26,02,25,11.80
2012,07,26,02,26,11.80
2012,07,26,02,27,11.80
2012,07,26,02,28,11.80
2012,07,26,02,29,11.80
2012,07,26,02,30,11.80
2012,07,26,02,31,11.70
2012,07,26,02,32,11.70
2012,07,26,02,33,11.70
2012,07,26,02,34,11.70
2012,07,26,02,35,11.70
2012,07,26,02,36,11.70
2012,07,26,02,37,11.70
2012,07,26,02,38,11.70
2012,07,26,02,39,11.70
2012,07,26,02,40,11.70
2012,07,26,02,41,11.70
2012,07,26,02,42,11.60
2012,07,26,02,43,11.60
2012,07,26,02,44,11.60
2012,07,26,02,45,11.60
2012,07,26,02,46,11.60
2012,07,26,02,47,11.60
2012,07,26,02,48,11.60
2012,07,26,02,49,11.60
2012,07,26,02,50,11.60
2012,07,26,02,51,11.60
2012,07,26,02,52,11.40
2012,07,26,02,53,11.40
2012,07,26,02,54,11.40
2012,07,26,02,55,11.40
2012,07,26,02,56,11.40
2012,07,26,02,57,11.40
2012,07,26,02,58,11.40
2012,07,26,02,59,11.40
2012,07,26,03,00,11.40
2012,07,26,03,01,11.40
2012,07,26,03,02,11.40
2012,07,26,03,03,11.40
2012,07,26,03,04,11.40
2012,07,26,03,05,11.40
2012,07,26,03,06,11.40
2012,07,26,03,07,11.40
2012,07,26,03,08,11.30
2012,07,26,03,09,11.30
2012,07,26,03,10,11.30
2012,07,26,03,11,11.30
2012,07,26,03,12,11.30
2012,07,26,03,13,11.30
2012,07,26,03,14,11.30
2012,07,26,03,15,11.30
2012,07,26,03,16,11.30
2012,07,26,03,17,11.30
2012,07,26,03,18,11.30
2012,07,26,03,19,11.30
2012,07,26,03,20,11.30
2012,07,26,03,21,11.20
2012,07,26,03,22,11.20
2012,07,26,03,23,11.20
2012,07,26,03,24,11.20
2012,07,26,03,25,11.20
2012,07,26,03,26,11.20
2012,07,26,03,27,11.20
2012,07,26,03,28,11.20
2012,07,26,03,29,11.20
2012,07,26,03,30,11.20
2012,07,26,03,31,11.10
2012,07,26,03,32,11.10
2012,07,26,03,33,11.10
2012,07,26,03,34,11.10
2012,07,26,03,35,11.10
2012,07,26,03,36,11.10
2012,07,26,03,37,11.10
2012,07,26,03,38,11.10
2012,07,26,03,39,11.10
2012,07,26,03,40,11.10
2012,07,26,03,41,11.10
2012,07,26,03,42,11.10
2012,07,26,03,43,11.10
2012,07,26,03,44,11.10
2012,07,26,03,45,11.10
2012,07,26,03,46,11.10
2012,07,26,03,47,11.10
2012,07,26,03,48,11.10
2012,07,26,03,49,11.10
2012,07,26,03,50,11.10
2012,07,26,03,51,11.10
2012,07,26,03,52,11.10
2012,07,26,03,53,11.10
2012,07,26,03,54,11.10
2012,07,26,03,55,11.10
2012,07,26,03,56,11.10
2012,07,26,03,57,11.10
2012,07,26,03,58,11.10
2012,07,26,03,59,11.10
2012,07,26,04,00,11.10
2012,07,26,04,01,11.10
2012,07,26,04,02,11.10
2012,07,26,04,03,11.10
2012,07,26,04,04,11.10
2012,07,26,04,05,11.10
2012,07,26,04,06,11.10
2012,07,26,04,07,11.10
2012,07,26,04,08,11.10
2012,07,26,04,09,11.10
2012,07,26,04,10,11.10
2012,07,26,04,11,11.10
2012,07,26,04,12,11.10
2012,07,26,04,13,11.10
2012,07,26,04,14,11.10
2012,07,26,04,15,11.10
2012,07,26,04,16,11.10
2012,07,26,04,17,11.10
2012,07,26,04,18,11.10
2012,07,26,04,19,11.00
2012,07,26,04,20,10.90
2012,07,26,04,21,10.90
2012,07,26,04,22,10.90
2012,07,26,04,23,10.90
2012,07,26,04,24,10.90
2012,07,26,04,25,10.90
2012,07,26,04,26,10.90
2012,07,26,04,27,10.90
2012,07,26,04,28,10.90
2012,07,26,04,29,10.90
2012,07,26,04,30,10.90
2012,07,26,04,31,10.90
2012,07,26,04,32,10.90
2012,07,26,04,33,10.90
2012,07,26,04,34,10.90
2012,07,26,04,35,10.90
2012,07,26,04,36,10.90
2012,07,26,04,37,10.90
2012,07,26,04,38,10.90
2012,07,26,04,39,10.90
2012,07,26,04,40,10.90
2012,07,26,04,41,10.90
2012,07,26,04,42,10.90
2012,07,26,04,43,10.90
2012,07,26,04,44,10.90
2012,07,26,04,45,10.90
2012,07,26,04,46,10.90
2012,07,26,04,47,10.90
2012,07,26,04,48,10.90
2012,07,26,04,49,10.90
2012,07,26,04,50,10.90
2012,07,26,04,51,10.90
2012,07,26,04,52,10.90
2012,07,26,04,53,10.90
2012,07,26,04,54,10.90
2012,07,26,04,55,10.80
2012,07,26,04,56,10.80
2012,07,26,04,57,10.90
2012,07,26,04,58,10.90
2012,07,26,04,59,10.90
2012,07,26,05,00,10.90
2012,07,26,05,01,10.90
2012,07,26,05,02,10.80
2012,07,26,05,03,10.80
2012,07,26,05,04,10.80
2012,07,26,05,05,10.80
2012,07,26,05,06,10.80
2012,07,26,05,07,10.80
2012,07,26,05,08,10.70
2012,07,26,05,09,10.70
2012,07,26,05,10,10.70
2012,07,26,05,11,10.70
2012,07,26,05,12,10.70
2012,07,26,05,13,10.70
2012,07,26,05,14,10.70
2012,07,26,05,15,10.70
2012,07,26,05,16,10.70
2012,07,26,05,17,10.70
2012,07,26,05,18,10.70
2012,07,26,05,19,10.70
2012,07,26,05,20,10.70
2012,07,26,05,21,10.70
2012,07,26,05,22,10.70
2012,07,26,05,23,10.80
2012,07,26,05,24,10.80
2012,07,26,05,25,10.70
2012,07,26,05,26,10.80
2012,07,26,05,27,10.80
2012,07,26,05,28,10.80
2012,07,26,05,29,10.70
2012,07,26,05,30,10.70
2012,07,26,05,31,10.70
2012,07,26,05,32,10.70
2012,07,26,05,33,10.70
2012,07,26,05,34,10.70
2012,07,26,05,35,10.60
2012,07,26,05,36,10.60
2012,07,26,05,37,10.60
2012,07,26,05,38,10.60
2012,07,26,05,39,10.60
2012,07,26,05,40,10.60
2012,07,26,05,41,10.60
2012,07,26,05,42,10.60
2012,07,26,05,43,10.60
2012,07,26,05,44,10.60
2012,07,26,05,45,10.60
2012,07,26,05,46,10.60
2012,07,26,05,47,10.60
2012,07,26,05,48,10.60
2012,07,26,05,49,10.60
2012,07,26,05,50,10.60
2012,07,26,05,51,10.60
2012,07,26,05,52,10.60
2012,07,26,05,53,10.60
2012,07,26,05,54,10.60
2012,07,26,05,55,10.60
2012,07,26,05,56,10.60
2012,07,26,05,57,10.60
2012,07,26,05,58,10.60
2012,07,26,05,59,10.60
2012,07,26,06,00,10.60
2012,07,26,06,01,10.60
2012,07,26,06,02,10.60
2012,07,26,06,03,10.60
2012,07,26,06,04,10.60
2012,07,26,06,05,10.60
2012,07,26,06,06,10.60
2012,07,26,06,07,10.60
2012,07,26,06,08,10.60
2012,07,26,06,09,10.60
2012,07,26,06,10,10.60
2012,07,26,06,11,10.60
2012,07,26,06,12,10.60
2012,07,26,06,13,10.60
2012,07,26,06,14,10.60
2012,07,26,06,15,10.60
2012,07,26,06,16,10.60
2012,07,26,06,17,10.60
2012,07,26,06,18,10.60
2012,07,26,06,19,10.60
2012,07,26,06,20,10.60
2012,07,26,06,21,10.60
2012,07,26,06,22,10.60
2012,07,26,06,23,10.70
2012,07,26,06,24,10.70
2012,07,26,06,25,10.70
2012,07,26,06,26,10.80
2012,07,26,06,27,10.80
2012,07,26,06,28,10.80
2012,07,26,06,29,10.80
2012,07,26,06,30,10.80
2012,07,26,06,31,10.80
2012,07,26,06,32,10.80
2012,07,26,06,33,10.80
2012,07,26,06,34,10.80
2012,07,26,06,35,10.90
2012,07,26,06,36,10.90
2012,07,26,06,37,10.90
2012,07,26,06,38,10.90
2012,07,26,06,39,10.90
2012,07,26,06,40,10.90
2012,07,26,06,41,10.90
2012,07,26,06,42,10.90
2012,07,26,06,43,11.00
2012,07,26,06,44,11.10
2012,07,26,06,45,11.10
2012,07,26,06,46,11.10
2012,07,26,06,47,11.10
2012,07,26,06,48,11.10
2012,07,26,06,49,11.20
2012,07,26,06,50,11.20
2012,07,26,06,51,11.20
2012,07,26,06,52,11.20
2012,07,26,06,53,11.30
2012,07,26,06,54,11.30
2012,07,26,06,55,11.30
2012,07,26,06,56,11.40
2012,07,26,06,57,11.40
2012,07,26,06,58,11.50
2012,07,26,06,59,11.60
2012,07,26,07,00,11.60
2012,07,26,07,01,11.60
2012,07,26,07,02,11.70
2012,07,26,07,03,11.70
2012,07,26,07,04,11.80
2012,07,26,07,05,11.80
2012,07,26,07,06,11.80
2012,07,26,07,07,11.80
2012,07,26,07,08,11.90
2012,07,26,07,09,11.90
2012,07,26,07,10,12.00
2012,07,26,07,11,12.00
2012,07,26,07,12,12.00
2012,07,26,07,13,12.10
2012,07,26,07,14,12.20
2012,07,26,07,15,12.20
2012,07,26,07,16,12.20
2012,07,26,07,17,12.20
2012,07,26,07,18,12.30
2012,07,26,07,19,12.30
2012,07,26,07,20,12.30
2012,07,26,07,21,12.30
2012,07,26,07,22,12.40
2012,07,26,07,23,12.40
2012,07,26,07,24,12.50
2012,07,26,07,25,12.50
2012,07,26,07,26,12.50
2012,07,26,07,27,12.60
2012,07,26,07,28,12.60
2012,07,26,07,29,12.60
2012,07,26,07,30,12.70
2012,07,26,07,31,12.70
2012,07,26,07,32,12.70
2012,07,26,07,33,12.80
2012,07,26,07,34,12.80
2012,07,26,07,35,12.80
2012,07,26,07,36,12.80
2012,07,26,07,37,12.80
2012,07,26,07,38,12.80
2012,07,26,07,39,12.90
2012,07,26,07,40,13.00
2012,07,26,07,41,13.00
2012,07,26,07,42,13.10
2012,07,26,07,43,13.10
2012,07,26,07,44,13.10
2012,07,26,07,45,13.10
2012,07,26,07,46,13.20
2012,07,26,07,47,13.30
2012,07,26,07,48,13.30
2012,07,26,07,49,13.40
2012,07,26,07,50,13.50
2012,07,26,07,51,13.60
2012,07,26,07,52,13.60
2012,07,26,07,53,13.70
2012,07,26,07,54,13.70
2012,07,26,07,55,13.80
2012,07,26,07,56,13.90
2012,07,26,07,57,13.90
2012,07,26,07,58,14.00
2012,07,26,07,59,14.00
2012,07,26,08,00,14.10
2012,07,26,08,01,14.10
2012,07,26,08,02,14.10
2012,07,26,08,03,14.10
2012,07,26,08,04,14.10
2012,07,26,08,05,14.10
2012,07,26,08,06,14.10
2012,07,26,08,07,14.10
2012,07,26,08,08,14.10
2012,07,26,08,09,14.10
2012,07,26,08,10,14.10
2012,07,26,08,11,14.10
2012,07,26,08,12,14.10
2012,07,26,08,13,14.20
2012,07,26,08,14,14.20
2012,07,26,08,15,14.20
2012,07,26,08,16,14.20
2012,07,26,08,17,14.30
2012,07,26,08,18,14.30
2012,07,26,08,19,14.40
2012,07,26,08,20,14.40
2012,07,26,08,21,14.50
2012,07,26,08,22,14.50
2012,07,26,08,23,14.50
2012,07,26,08,24,14.60
2012,07,26,08,25,14.60
2012,07,26,08,26,14.70
2012,07,26,08,27,14.80
2012,07,26,08,28,14.80
2012,07,26,08,29,14.90
2012,07,26,08,30,14.90
2012,07,26,08,31,14.90
2012,07,26,08,32,15.00
2012,07,26,08,33,15.00
2012,07,26,08,34,15.00
2012,07,26,08,35,15.00
2012,07,26,08,36,15.00
2012,07,26,08,37,15.00
2012,07,26,08,38,15.00
2012,07,26,08,39,15.00
2012,07,26,08,40,15.00
2012,07,26,08,41,15.00
2012,07,26,08,42,15.10
2012,07,26,08,43,15.20
2012,07,26,08,44,15.20
2012,07,26,08,45,15.20
2012,07,26,08,46,15.20
2012,07,26,08,47,15.20
2012,07,26,08,48,15.30
2012,07,26,08,49,15.30
2012,07,26,08,50,15.30
2012,07,26,08,51,15.30
2012,07,26,08,52,15.30
2012,07,26,08,53,15.30
2012,07,26,08,54,15.30
2012,07,26,08,55,15.30
2012,07,26,08,56,15.40
2012,07,26,08,57,15.40
2012,07,26,08,58,15.50
2012,07,26,08,59,15.50
2012,07,26,09,00,15.50
2012,07,26,09,01,15.60
2012,07,26,09,02,15.60
2012,07,26,09,03,15.70
2012,07,26,09,04,15.80
2012,07,26,09,05,15.80
2012,07,26,09,06,15.80
2012,07,26,09,07,15.80
2012,07,26,09,08,15.80
2012,07,26,09,09,15.90
2012,07,26,09,10,15.90
2012,07,26,09,11,15.90
2012,07,26,09,12,15.90
2012,07,26,09,13,15.90
2012,07,26,09,14,16.10
2012,07,26,09,15,16.00
2012,07,26,09,16,15.90
2012,07,26,09,17,15.90
2012,07,26,09,18,15.90
2012,07,26,09,19,15.90
2012,07,26,09,20,15.90
2012,07,26,09,21,15.90
2012,07,26,09,22,15.90
2012,07,26,09,23,16.00
2012,07,26,09,24,16.10
2012,07,26,09,25,16.10
2012,07,26,09,26,16.10
2012,07,26,09,27,16.10
2012,07,26,09,28,16.20
2012,07,26,09,29,16.20
2012,07,26,09,30,16.30
2012,07,26,09,31,16.30
2012,07,26,09,32,16.40
2012,07,26,09,33,16.40
2012,07,26,09,34,16.40
2012,07,26,09,35,16.40
2012,07,26,09,36,16.40
2012,07,26,09,37,16.40
2012,07,26,09,38,16.50
2012,07,26,09,39,16.60
2012,07,26,09,40,16.60
2012,07,26,09,41,16.60
2012,07,26,09,42,16.70
2012,07,26,09,43,16.70
2012,07,26,09,44,16.70
2012,07,26,09,45,16.70
2012,07,26,09,46,16.80
2012,07,26,09,47,16.80
2012,07,26,09,48,16.70
2012,07,26,09,49,16.60
2012,07,26,09,50,16.40
2012,07,26,09,51,16.30
2012,07,26,09,52,16.30
2012,07,26,09,53,16.30
2012,07,26,09,54,16.40
2012,07,26,09,55,16.40
2012,07,26,09,56,16.40
2012,07,26,09,57,16.50
2012,07,26,09,58,16.60
2012,07,26,09,59,16.60
2012,07,26,10,00,16.40
2012,07,26,10,01,16.40
2012,07,26,10,02,16.40
2012,07,26,10,03,16.40
2012,07,26,10,04,16.60
2012,07,26,10,05,16.60
2012,07,26,10,06,16.70
2012,07,26,10,07,16.70
2012,07,26,10,08,16.70
2012,07,26,10,09,16.80
2012,07,26,10,10,16.90
2012,07,26,10,11,16.90
2012,07,26,10,12,17.00
2012,07,26,10,13,17.10
2012,07,26,10,14,17.20
2012,07,26,10,15,17.30
2012,07,26,10,16,17.30
2012,07,26,10,17,17.30
2012,07,26,10,18,17.30
2012,07,26,10,19,17.30
2012,07,26,10,20,17.30
2012,07,26,10,21,17.30
2012,07,26,10,22,17.30
2012,07,26,10,23,17.30
2012,07,26,10,24,17.30
2012,07,26,10,25,17.40
2012,07,26,10,26,17.40
2012,07,26,10,27,17.40
2012,07,26,10,28,17.40
2012,07,26,10,29,17.30
2012,07,26,10,30,17.30
2012,07,26,10,31,17.40
2012,07,26,10,32,17.40
2012,07,26,10,33,17.40
2012,07,26,10,34,17.50
2012,07,26,10,35,17.50
2012,07,26,10,36,17.50
2012,07,26,10,37,17.60
2012,07,26,10,38,17.60
2012,07,26,10,39,17.40
2012,07,26,10,40,17.30
2012,07,26,10,41,17.30
2012,07,26,10,42,17.10
2012,07,26,10,43,17.00
2012,07,26,10,44,16.90
2012,07,26,10,45,16.50
2012,07,26,10,46,16.10
2012,07,26,10,47,15.80
2012,07,26,10,48,15.50
2012,07,26,10,49,15.40
2012,07,26,10,50,15.10
2012,07,26,10,51,15.10
2012,07,26,10,52,15.00
2012,07,26,10,53,14.90
2012,07,26,10,54,14.80
2012,07,26,10,55,14.80
2012,07,26,10,56,14.80
2012,07,26,10,57,14.90
2012,07,26,10,58,15.00
2012,07,26,10,59,15.10
2012,07,26,11,00,14.90
2012,07,26,11,01,14.70
2012,07,26,11,02,14.60
2012,07,26,11,03,14.60
2012,07,26,11,04,14.60
2012,07,26,11,05,14.60
2012,07,26,11,06,14.70
2012,07,26,11,07,14.70
2012,07,26,11,08,14.80
2012,07,26,11,09,14.80
2012,07,26,11,10,14.80
2012,07,26,11,11,14.90
2012,07,26,11,12,15.00
2012,07,26,11,13,15.10
2012,07,26,11,14,15.20
2012,07,26,11,15,15.30
2012,07,26,11,16,15.40
2012,07,26,11,17,15.50
2012,07,26,11,18,15.60
2012,07,26,11,19,15.80
2012,07,26,11,20,15.90
2012,07,26,11,21,16.00
2012,07,26,11,22,16.10
2012,07,26,11,23,16.20
2012,07,26,11,24,16.20
2012,07,26,11,25,16.20
2012,07,26,11,26,16.20
2012,07,26,11,27,16.30
2012,07,26,11,28,16.40
2012,07,26,11,29,16.40
2012,07,26,11,30,16.50
2012,07,26,11,31,16.40
2012,07,26,11,32,16.50
2012,07,26,11,33,16.40
2012,07,26,11,34,16.30
2012,07,26,11,35,16.20
2012,07,26,11,36,16.30
2012,07,26,11,37,16.40
2012,07,26,11,38,16.40
2012,07,26,11,39,16.30
2012,07,26,11,40,16.30
2012,07,26,11,41,16.20
2012,07,26,11,42,16.00
2012,07,26,11,43,15.90
2012,07,26,11,44,16.00
2012,07,26,11,45,16.10
2012,07,26,11,46,16.00
2012,07,26,11,47,15.90
2012,07,26,11,48,15.90
2012,07,26,11,49,16.10
2012,07,26,11,50,16.30
2012,07,26,11,51,16.50
2012,07,26,11,52,16.70
2012,07,26,11,53,16.90
2012,07,26,11,54,17.10
2012,07,26,11,55,17.20
2012,07,26,11,56,17.50
2012,07,26,11,57,17.70
2012,07,26,11,58,17.80
2012,07,26,11,59,17.90
2012,07,26,12,00,17.90
2012,07,26,12,01,17.90
2012,07,26,12,02,17.90
2012,07,26,12,03,17.90
2012,07,26,12,04,18.00
2012,07,26,12,05,18.10
2012,07,26,12,06,18.20
2012,07,26,12,07,18.30
2012,07,26,12,08,18.40
2012,07,26,12,09,18.50
2012,07,26,12,10,18.60
2012,07,26,12,11,18.60
2012,07,26,12,12,18.80
2012,07,26,12,13,18.90
2012,07,26,12,14,18.90
2012,07,26,12,15,18.90
2012,07,26,12,16,18.90
2012,07,26,12,17,18.70
2012,07,26,12,18,18.70
2012,07,26,12,19,18.80
2012,07,26,12,20,18.90
2012,07,26,12,21,18.90
2012,07,26,12,22,18.90
2012,07,26,12,23,18.90
2012,07,26,12,24,18.90
2012,07,26,12,25,18.90
2012,07,26,12,26,18.90
2012,07,26,12,27,19.00
2012,07,26,12,28,19.10
2012,07,26,12,29,19.10
2012,07,26,12,30,19.10
2012,07,26,12,31,19.10
2012,07,26,12,32,19.10
2012,07,26,12,33,19.10
2012,07,26,12,34,19.10
2012,07,26,12,35,19.10
2012,07,26,12,36,19.10
2012,07,26,12,37,19.10
2012,07,26,12,38,19.10
2012,07,26,12,39,19.20
2012,07,26,12,40,19.10
2012,07,26,12,41,19.10
2012,07,26,12,42,19.10
2012,07,26,12,43,19.00
2012,07,26,12,44,18.90
2012,07,26,12,45,18.90
2012,07,26,12,46,18.90
2012,07,26,12,47,18.90
2012,07,26,12,48,18.90
2012,07,26,12,49,18.80
2012,07,26,12,50,18.80
2012,07,26,12,51,18.90
2012,07,26,12,52,18.90
2012,07,26,12,53,18.90
2012,07,26,12,54,18.90
2012,07,26,12,55,19.00
2012,07,26,12,56,19.10
2012,07,26,12,57,19.10
2012,07,26,12,58,19.10
2012,07,26,12,59,19.20
2012,07,26,13,00,19.30
2012,07,26,13,01,19.40
2012,07,26,13,02,19.40
2012,07,26,13,03,19.40
2012,07,26,13,04,19.40
2012,07,26,13,05,19.40
2012,07,26,13,06,19.50
2012,07,26,13,07,19.50
2012,07,26,13,08,19.40
2012,07,26,13,09,19.30
2012,07,26,13,10,19.30
2012,07,26,13,11,19.20
2012,07,26,13,12,19.20
2012,07,26,13,13,19.10
2012,07,26,13,14,19.10
2012,07,26,13,15,19.10
2012,07,26,13,16,19.10
2012,07,26,13,17,19.00
2012,07,26,13,18,18.90
2012,07,26,13,19,19.00
2012,07,26,13,20,19.10
2012,07,26,13,21,19.10
2012,07,26,13,22,19.10
2012,07,26,13,23,19.10
2012,07,26,13,24,19.10
2012,07,26,13,25,18.90
2012,07,26,13,26,18.90
2012,07,26,13,27,19.00
2012,07,26,13,28,19.00
2012,07,26,13,29,18.90
2012,07,26,13,30,19.00
2012,07,26,13,31,19.10
2012,07,26,13,32,19.10
2012,07,26,13,33,19.10
2012,07,26,13,34,19.10
2012,07,26,13,35,19.10
2012,07,26,13,36,19.10
2012,07,26,13,37,19.10
2012,07,26,13,38,19.10
2012,07,26,13,39,19.10
2012,07,26,13,40,19.10
2012,07,26,13,41,19.10
2012,07,26,13,42,19.10
2012,07,26,13,43,19.10
2012,07,26,13,44,19.20
2012,07,26,13,45,19.40
2012,07,26,13,46,19.40
2012,07,26,13,47,19.40
2012,07,26,13,48,19.30
2012,07,26,13,49,19.30
2012,07,26,13,50,19.30
2012,07,26,13,51,19.40
2012,07,26,13,52,19.40
2012,07,26,13,53,19.40
2012,07,26,13,54,19.40
2012,07,26,13,55,19.40
2012,07,26,13,56,19.40
2012,07,26,13,57,19.50
2012,07,26,13,58,19.40
2012,07,26,13,59,19.40
2012,07,26,14,00,19.30
2012,07,26,14,01,19.10
2012,07,26,14,02,18.90
2012,07,26,14,03,18.90
2012,07,26,14,04,18.80
2012,07,26,14,05,18.70
2012,07,26,14,06,18.70
2012,07,26,14,07,18.70
2012,07,26,14,08,18.60
2012,07,26,14,09,18.50
2012,07,26,14,10,18.60
2012,07,26,14,11,18.60
2012,07,26,14,12,18.60
2012,07,26,14,13,18.70
2012,07,26,14,14,18.70
2012,07,26,14,15,18.80
2012,07,26,14,16,18.70
2012,07,26,14,17,18.70
2012,07,26,14,18,18.60
2012,07,26,14,19,18.40
2012,07,26,14,20,18.30
2012,07,26,14,21,18.40
2012,07,26,14,22,18.50
2012,07,26,14,23,18.60
2012,07,26,14,24,18.60
2012,07,26,14,25,18.60
2012,07,26,14,26,18.50
2012,07,26,14,27,18.40
2012,07,26,14,28,18.50
2012,07,26,14,29,18.50
2012,07,26,14,30,18.60
2012,07,26,14,31,18.60
2012,07,26,14,32,18.60
2012,07,26,14,33,18.40
2012,07,26,14,34,18.20
2012,07,26,14,35,18.00
2012,07,26,14,36,17.90
2012,07,26,14,37,17.80
2012,07,26,14,38,17.70
2012,07,26,14,39,17.70
2012,07,26,14,40,17.80
2012,07,26,14,41,17.90
2012,07,26,14,42,17.90
2012,07,26,14,43,18.00
2012,07,26,14,44,18.10
2012,07,26,14,45,18.20
2012,07,26,14,46,18.20
2012,07,26,14,47,18.20
2012,07,26,14,48,18.20
2012,07,26,14,49,18.20
2012,07,26,14,50,18.20
2012,07,26,14,51,18.20
2012,07,26,14,52,18.20
2012,07,26,14,53,18.20
2012,07,26,14,54,18.20
2012,07,26,14,55,18.00
2012,07,26,14,56,17.90
2012,07,26,14,57,17.90
2012,07,26,14,58,17.90
2012,07,26,14,59,17.90
2012,07,26,15,00,17.90
2012,07,26,15,01,18.00
2012,07,26,15,02,18.10
2012,07,26,15,03,18.20
2012,07,26,15,04,18.20
2012,07,26,15,05,18.10
2012,07,26,15,06,17.90
2012,07,26,15,07,17.70
2012,07,26,15,08,17.50
2012,07,26,15,09,17.40
2012,07,26,15,10,17.30
2012,07,26,15,11,17.20
2012,07,26,15,12,17.10
2012,07,26,15,13,17.00
2012,07,26,15,14,16.90
2012,07,26,15,15,16.70
2012,07,26,15,16,16.60
2012,07,26,15,17,16.40
2012,07,26,15,18,16.40
2012,07,26,15,19,16.30
2012,07,26,15,20,16.30
2012,07,26,15,21,16.30
2012,07,26,15,22,16.30
2012,07,26,15,23,16.40
2012,07,26,15,24,16.50
2012,07,26,15,25,16.80
2012,07,26,15,26,16.90
2012,07,26,15,27,17.00
2012,07,26,15,28,17.10
2012,07,26,15,29,17.10
2012,07,26,15,30,17.00
2012,07,26,15,31,17.00
2012,07,26,15,32,16.90
2012,07,26,15,33,16.80
2012,07,26,15,34,16.70
2012,07,26,15,35,16.50
2012,07,26,15,36,16.40
2012,07,26,15,37,16.40
2012,07,26,15,38,16.40
2012,07,26,15,39,16.40
2012,07,26,15,40,16.40
2012,07,26,15,41,16.30
2012,07,26,15,42,16.30
2012,07,26,15,43,16.30
2012,07,26,15,44,16.30
2012,07,26,15,45,16.30
2012,07,26,15,46,16.30
2012,07,26,15,47,16.30
2012,07,26,15,48,16.30
2012,07,26,15,49,16.30
2012,07,26,15,50,16.20
2012,07,26,15,51,16.10
2012,07,26,15,52,16.00
2012,07,26,15,53,15.90
2012,07,26,15,54,15.80
2012,07,26,15,55,15.60
2012,07,26,15,56,15.60
2012,07,26,15,57,15.60
2012,07,26,15,58,15.60
2012,07,26,15,59,15.60
2012,07,26,16,00,15.70
2012,07,26,16,01,15.70
2012,07,26,16,02,15.70
2012,07,26,16,03,15.60
2012,07,26,16,04,15.50
2012,07,26,16,05,15.40
2012,07,26,16,06,15.40
2012,07,26,16,07,15.30
2012,07,26,16,08,15.20
2012,07,26,16,09,15.00
2012,07,26,16,10,14.90
2012,07,26,16,11,14.70
2012,07,26,16,12,14.70
2012,07,26,16,13,14.60
2012,07,26,16,14,14.60
2012,07,26,16,15,14.50
2012,07,26,16,16,14.50
2012,07,26,16,17,14.50
2012,07,26,16,18,14.50
2012,07,26,16,19,14.40
2012,07,26,16,20,14.40
2012,07,26,16,21,14.40
2012,07,26,16,22,14.50
2012,07,26,16,23,14.50
2012,07,26,16,24,14.50
2012,07,26,16,25,14.60
2012,07,26,16,26,14.60
2012,07,26,16,27,14.50
2012,07,26,16,28,14.40
2012,07,26,16,29,14.20
2012,07,26,16,30,14.00
2012,07,26,16,31,13.90
2012,07,26,16,32,13.80
2012,07,26,16,33,13.70
2012,07,26,16,34,13.70
2012,07,26,16,35,13.70
2012,07,26,16,36,13.70
2012,07,26,16,37,13.70
2012,07,26,16,38,13.80
2012,07,26,16,39,13.90
2012,07,26,16,40,14.00
2012,07,26,16,41,14.10
2012,07,26,16,42,14.20
2012,07,26,16,43,14.20
2012,07,26,16,44,14.20
2012,07,26,16,45,14.30
2012,07,26,16,46,14.40
2012,07,26,16,47,14.40
2012,07,26,16,48,14.40
2012,07,26,16,49,14.50
2012,07,26,16,50,14.70
2012,07,26,16,51,14.80
2012,07,26,16,52,14.90
2012,07,26,16,53,15.00
2012,07,26,16,54,15.10
2012,07,26,16,55,15.00
2012,07,26,16,56,15.00
2012,07,26,16,57,15.10
2012,07,26,16,58,15.10
2012,07,26,16,59,15.20
2012,07,26,17,00,15.10
2012,07,26,17,01,15.10
2012,07,26,17,02,15.20
2012,07,26,17,03,15.20
2012,07,26,17,04,15.30
2012,07,26,17,05,15.30
2012,07,26,17,06,15.30
2012,07,26,17,07,15.30
2012,07,26,17,08,15.30
2012,07,26,17,09,15.30
2012,07,26,17,10,15.30
2012,07,26,17,11,15.40
2012,07,26,17,12,15.30
2012,07,26,17,13,15.40
2012,07,26,17,14,15.50
2012,07,26,17,15,15.60
2012,07,26,17,16,15.60
2012,07,26,17,17,15.60
2012,07,26,17,18,15.60
2012,07,26,17,19,15.70